Location: Ferchesar
(52.6477°N, 12.4298°E)
Time: 04:37:49
(UTC+01:00)

Vanguard 1 - Pass Details

Date: 13 December 2021
Orbit: 652 x 3830 km, 34.2° (Epoch: 21 January)

Event Time Altitude Azimuth Distance (km) Brightness Sun altitude
Rises 21:54:36 0° 227° (SW) 6,109 14.2 -51.6°
Reaches altitude 10° 21:58:28 10° 220° (SW) 5,480 13.8 -52.0°
Enters shadow 22:02:03 20° 211° (SSW) 5,014 13.5 -52.4°
